map of KRT home
KRT - Airport
Location
City:  Khartoum, Khartoum, Sudan
ICAO:HSSS
IATA:KRT

Details
Type:Airport (Aerodrome, Airfield)
Use:Public/Civil, Military, International (customs port of entry)
Latitude:1535'22"N (15.589497)
Longitude:3233'11"E (32.553161)
Datum:WGS 1984
Elevation:1265 ft (386 m)
Variation:3.31E (WMM2015 magnetic declination)
0.08 annual change
Runways:1
Longest:9777 × 148 ft (2980 × 45 m), paved

Time
Time Zone:UTC+3
Local Time:

Weather
METAR:HSSS 091100Z 03004KT CAVOK 32/08 Q1013 NOSIG
TAF:HSSS 091100Z 0912/1018 36010G20KT CAVOK

Related Locations
Nearby:
Farthest:KKR: 12412 mi / 19975 km
Kaukura Atoll, PF

Find:

   beyond  
but within

Other Information
Maps:
NOTAMs:
Links:
Sources:

  
flag of Sudan   

Sectional Chart

Flight Planning
at skyvector.com

Satellite Image

Google Maps Satellite view

 

Copyright © 2004-2016 Karl L. Swartz. All rights reserved.
The Great Circle Mapper name and logo are trademarks of the Great Circle Mapper.
All other trademarks mentioned herein belong to their respective owners.
Please see credits for attibutions and further copyright information.

  Follow gcmap on Facebook Follow gcmap on Twitter Follow gcmap on Google+ GCmap on LinkedIn

hCard Microformat

Geo Microformat